{"data":{"norad_id":66276,"intl_designator":"2025-247M","name":"STARLINK-35742","alt_names":[],"object_type":"PAYLOAD","status":"ACTIVE","operator":null,"country":"US","launch_date":"2025-10-31","launch_site_code":"AFWTR","launch_vehicle":null,"mission":null,"orbit_class":"UNKNOWN","rcs_meters":null,"size_class":null,"mass_kg":null,"dimensions":null,"purposes":["comms"],"wikipedia_slug":null,"has_3d_model":false,"image_url":null,"decayed_at":null,"tle_current":{"epoch":"2026-09-20T14:19:46.691616Z","epoch_age_seconds":88306,"freshness":"FRESH","line1":"1 66276U 25247M   26263.59706819  .00024764  00000+0  74143-3 0  9995","line2":"2 66276  53.1607   3.3689 0001100  83.3155 276.7973 15.34409309 50966","mean_motion":15.34409309,"eccentricity":0.00011,"inclination_deg":53.1607,"raan_deg":3.3689,"arg_perigee_deg":83.3155,"mean_anomaly_deg":276.7973,"bstar":0.00074143,"rev_number":5096,"period_min":93.847188722967,"perigee_km":461.92308265428,"apogee_km":463.42806142013,"semimajor_km":6840.8125720372,"source":"CELESTRAK","updated_at":"2026-09-21T09:00:35.868889Z"}}}